Simultaneous Nadir Overpasses (SNOs) Predictions

Prediction of SNOs between NOAA-19 and TERRA Satellite Orbit:

Table of predicted SNOs for the next 14.0 days since TLE Epoch: 9/11/2016
Index Date (NOAA-19) Time (NOAA-19) Lat,Lon (NOAA-19) SZA (NOAA-19 ) Date (TERRA) Time (TERRA) Lat,Lon (TERRA) SZA (TERRA ) Distance(km) Time Diff (sec)
1 09/12/2016 01:53:11 -74.22, -20.31 109.73 09/12/2016 01:53:30 -74.21, -20.29 109.74 1.63 19
2 09/12/2016 02:44:06 74.15, 147.16 70.23 09/12/2016 02:42:57 74.13, 147.19 70.20 1.70 69
3 09/14/2016 07:27:06 74.18, 76.38 71.11 09/14/2016 07:27:11 74.19, 76.25 71.11 3.92 5
4 09/14/2016 08:17:57 -73.49,-114.65 109.48 09/14/2016 08:16:51 -73.54,-117.55 109.59 91.70 66
5 09/16/2016 12:10:11 74.45, 4.94 72.20 09/16/2016 12:11:23 74.35, 5.56 72.14 22.04 72
6 09/16/2016 13:01:11 -74.21, 172.83 108.00 09/16/2016 13:00:53 -74.22, 172.89 108.00 2.21 18
7 09/18/2016 17:44:11 -74.26, 102.00 107.10 09/18/2016 17:45:07 -74.27, 101.95 107.08 1.95 56
8 09/18/2016 18:35:07 74.21, -90.60 72.88 09/18/2016 18:34:34 74.19, -90.59 72.85 1.88 33
9 09/20/2016 23:18:08 74.30,-161.54 73.82 09/20/2016 23:18:47 74.29,-161.42 73.82 3.86 39
10 09/21/2016 00:09:10 -74.18, 6.02 106.28 09/21/2016 00:08:17 -74.17, 5.93 106.30 2.90 53
11 09/23/2016 04:52:11 -74.29, -64.97 105.32 09/23/2016 04:52:30 -74.27, -64.90 105.33 3.02 19
